[[{"header":{"parameterUnit":"m.s-1","parameterCategory":1,"la1":30.2991,"la2":30.254,"lo1":-89.0895,"lo2":-89.0444,"dy":0.0017,"dx":0.0017,"nx":28,"ny":28,"refTime":"2024-06-03T09:00:00:Z","depth":0,"parameterNumber":2,"parameterNumberName":"U-component_of_WINDS"},"data":[0,0,0,0,0,0,0,0,0,0,0,0,0,0,0,0,0,0,0,0,0,0,0,0,0,0,0,0,0,0,0,0,0,0,0,0,0,0,0,0,0,0,0,0,0,0,0,0,0,0,0,0,0,0,0,0,0,0,-0.1849,-0.1848,0,-0.1821,-0.1821,-0.182,-0.181,-0.181,-0.181,-0.181,-0.1784,-0.1783,-0.1782,0,0,0,0,0,0,0,0,0,0,0,0,0,-0.1895,-0.1894,-0.1849,-0.1848,-0.1848,-0.1821,-0.1821,-0.182,-0.181,-0.181,-0.181,-0.181,-0.1784,-0.1783,-0.1782,0,0,0,0,0,0,0,0,0,0,0,0,0,-0.1872,-0.1894,-0.1849,-0.1839,-0.1838,-0.1821,-0.1821,-0.182,-0.181,-0.181,-0.181,-0.181,-0.1784,-0.1783,-0.1782,-0.1772,0,0,-0.1778,-0.1778,0,0,0,0,0,0,0,0,-0.1873,-0.187,-0.1841,-0.184,-0.1839,-0.1819,-0.1827,-0.1804,-0.181,-0.1821,-0.181,-0.181,-0.1795,-0.1793,-0.1788,-0.1771,-0.177,-0.1778,-0.1777,-0.1777,-0.1777,0,0,0,0,0,0,0,-0.1875,-0.1871,-0.1838,-0.1841,-0.1839,-0.1838,-0.1834,-0.1823,-0.1808,-0.182,-0.1819,-0.1816,-0.1795,-0.1789,-0.1787,-0.1769,-0.1778,-0.1777,-0.1776,-0.1776,-0.1744,-0.1743,0,0,0,0,0,0,-0.1878,-0.1873,-0.1839,-0.1837,-0.1857,-0.1837,-0.1833,-0.1825,-0.1808,-0.1805,-0.1816,-0.1815,-0.1791,-0.1789,-0.1786,-0.1774,-0.1777,-0.1776,-0.1775,-0.1744,-0.1744,-0.1743,0,0,0,0,0,0,-0.1879,-0.1875,-0.184,-0.1855,-0.185,-0.1836,-0.1827,-0.1825,-0.1819,-0.1805,-0.1802,-0.1812,-0.1791,-0.1788,-0.1776,-0.1773,-0.1775,-0.1774,-0.1744,-0.1744,-0.1744,-0.1749,0,0,0,0,0,0,-0.188,-0.1875,-0.1871,-0.1855,-0.1849,-0.1829,-0.1827,-0.1824,-0.1817,-0.1816,-0.1801,-0.1799,-0.1791,-0.1777,-0.1774,-0.1771,-0.1773,-0.1744,-0.1744,-0.1744,-0.1749,-0.1749,-0.1749,0,0,0,0,0,-0.1882,-0.1874,-0.1871,-0.1866,-0.1843,-0.1829,-0.1826,-0.1817,-0.1816,-0.1812,-0.1803,-0.1799,-0.1774,-0.1776,-0.1773,-0.1769,-0.1744,-0.1744,-0.1744,-0.1749,-0.1749,-0.1749,0,0,0,0,0,0,-0.1891,-0.1871,-0.1868,-0.1854,-0.1843,-0.1827,-0.1821,-0.1817,-0.1806,-0.1806,-0.1796,-0.1792,-0.1781,-0.1774,-0.1777,-0.1759,-0.1759,-0.1758,-0.1764,-0.1764,-0.1764,-0.1766,-0.1772,0,0,0,0,0,-0.1891,-0.188,-0.1864,-0.1854,-0.1848,-0.1836,-0.1829,-0.1823,-0.1812,-0.1807,-0.1797,-0.1787,-0.1776,-0.177,-0.176,-0.1748,-0.1745,-0.1744,-0.1744,-0.1744,-0.1743,-0.1737,-0.1737,-0.1742,-0.1742,-0.1742,0,0,-0.1891,-0.1879,-0.1873,-0.1855,-0.1846,-0.1836,-0.1832,-0.1821,-0.1814,-0.1806,-0.1793,-0.1786,-0.1774,-0.1762,-0.1756,-0.1756,-0.1741,-0.1744,-0.1744,-0.1743,-0.1737,-0.1737,-0.1736,-0.1742,-0.1742,-0.1742,0,0,-0.1887,-0.1877,-0.1867,-0.1858,-0.1844,-0.1836,-0.1833,-0.1818,-0.1813,-0.18,-0.1794,-0.1786,-0.1768,-0.176,-0.1753,-0.1746,-0.1742,-0.1743,-0.1743,-0.1738,-0.1737,-0.1737,-0.1735,-0.1734,-0.1743,-0.1743,-0.1743,0,-0.1889,-0.1873,-0.1863,-0.1852,-0.1845,-0.1836,-0.1827,-0.1819,-0.1803,-0.1798,-0.1797,-0.1775,-0.1766,-0.1753,-0.1751,-0.1746,-0.1744,-0.1745,-0.1738,-0.1737,-0.1737,-0.1735,-0.1734,-0.1743,-0.1743,-0.1743,-0.1743,0,-0.1877,-0.1866,-0.186,-0.1844,-0.1836,-0.1826,-0.1815,-0.1808,-0.1803,-0.1795,-0.1783,-0.1772,-0.176,-0.1756,-0.1751,-0.1742,-0.1742,-0.174,-0.1739,-0.1737,-0.1735,-0.1734,-0.1743,-0.1743,-0.1743,-0.1743,0,0,-0.1877,-0.1855,-0.1853,-0.1846,-0.183,-0.1822,-0.1812,-0.18,-0.1794,-0.1784,-0.1776,-0.1761,-0.1759,-0.1752,-0.1746,-0.1741,-0.1737,-0.1739,-0.1739,-0.1739,-0.1727,-0.1728,-0.1728,-0.1734,-0.1734,-0.1734,-0.1728,0,-0.1871,-0.1852,-0.1843,-0.1828,-0.1818,-0.1811,-0.1802,-0.1792,-0.1785,-0.1776,-0.1768,-0.1758,-0.1756,-0.1752,-0.1747,-0.1738,-0.1734,-0.1739,-0.1727,-0.1727,-0.173,-0.1726,-0.1728,-0.1723,-0.1727,-0.1727,-0.1727,0,-0.1861,-0.185,-0.1834,-0.182,-0.1815,-0.1808,-0.1796,-0.1787,-0.1776,-0.1771,-0.1763,-0.1757,-0.1748,-0.1748,-0.1735,-0.1738,-0.1733,-0.1728,-0.1728,-0.1726,-0.1726,-0.1725,-0.1721,-0.1721,-0.1725,-0.1725,-0.1725,0,-0.1863,-0.1844,-0.1832,-0.1826,-0.1809,-0.1804,-0.1797,-0.1786,-0.1779,-0.1769,-0.1765,-0.1754,-0.1748,-0.174,-0.1732,-0.1732,-0.172,-0.1719,-0.1716,-0.1716,-0.1713,-0.1714,-0.1709,-0.171,-0.171,-0.171,-0.171,0,-0.1857,-0.1848,-0.1833,-0.1826,-0.1815,-0.1805,-0.1796,-0.1788,-0.1779,-0.1771,-0.1764,-0.1756,-0.1746,-0.1737,-0.1731,-0.1721,-0.1719,-0.1715,-0.1713,-0.1715,-0.1716,-0.1712,-0.1712,-0.171,-0.171,-0.171,-0.171,0,-0.1857,-0.1847,-0.1833,-0.1818,-0.1815,-0.1808,-0.1795,-0.1789,-0.1781,-0.1771,-0.1768,-0.1757,-0.1747,-0.1737,-0.1724,-0.172,-0.171,-0.1708,-0.1714,-0.1713,-0.171,-0.1711,-0.1703,-0.1701,-0.1703,-0.1703,-0.1703,0,-0.1854,-0.1846,-0.1831,-0.1824,-0.1817,-0.1807,-0.18,-0.1791,-0.1784,-0.1771,-0.1766,-0.1755,-0.1746,-0.173,-0.1721,-0.1711,-0.1709,-0.1706,-0.1707,-0.171,-0.1709,-0.1709,-0.1709,-0.1707,-0.1707,-0.1707,-0.1707,0,-0.1849,-0.1845,-0.1834,-0.1822,-0.1814,-0.1804,-0.1795,-0.179,-0.1779,-0.1772,-0.1761,-0.1754,-0.174,-0.173,-0.1719,-0.1712,-0.1708,-0.1707,-0.1705,-0.1707,-0.1711,-0.1709,-0.1714,-0.1707,-0.1707,-0.1707,-0.1707,-0.1707,-0.1848,-0.1841,-0.1829,-0.1818,-0.181,-0.1801,-0.1794,-0.1785,-0.1776,-0.1764,-0.1759,-0.1748,-0.1738,-0.1722,-0.1716,-0.1708,-0.1707,-0.1705,-0.1705,-0.1704,-0.1705,-0.1712,-0.1706,-0.1706,-0.1706,-0.1706,-0.1706,0,-0.1844,-0.1835,-0.1825,-0.1812,-0.1803,-0.1799,-0.1788,-0.1782,-0.1772,-0.1763,-0.1754,-0.1742,-0.1732,-0.1722,-0.1712,-0.1707,-0.1705,-0.1705,-0.1705,-0.1704,-0.1706,-0.1708,-0.1707,-0.1707,-0.1707,-0.1707,-0.1707,-0.1707,-0.184,-0.1829,-0.1823,-0.1808,-0.18,-0.1788,-0.1783,-0.1775,-0.1767,-0.1754,-0.1745,-0.1739,-0.1729,-0.1718,-0.1709,-0.1707,-0.1703,-0.1704,-0.1701,-0.1703,-0.1703,-0.1703,-0.1705,-0.1703,-0.1703,-0.1699,-0.1699,-0.1699]},{"header":{"parameterUnit":"m.s-1","parameterCategory":1,"la1":30.2991,"la2":30.254,"lo1":-89.0895,"lo2":-89.0444,"dy":0.0017,"dx":0.0017,"nx":28,"ny":28,"refTime":"2024-06-03T09:00:00:Z","depth":0,"parameterNumber":3,"parameterNumberName":"V-component_of_WINDS"},"data":[0,0,0,0,0,0,0,0,0,0,0,0,0,0,0,0,0,0,0,0,0,0,0,0,0,0,0,0,0,0,0,0,0,0,0,0,0,0,0,0,0,0,0,0,0,0,0,0,0,0,0,0,0,0,0,0,0,0,3.5746,3.5745,0,3.5638,3.5637,3.5636,3.5512,3.551,3.5508,3.5507,3.5394,3.5393,3.5391,0,0,0,0,0,0,0,0,0,0,0,0,0,3.5841,3.584,3.5746,3.5745,3.5743,3.5639,3.5637,3.5636,3.5513,3.551,3.5508,3.5506,3.5394,3.5393,3.5391,0,0,0,0,0,0,0,0,0,0,0,0,0,3.5774,3.584,3.5746,3.5669,3.5661,3.5639,3.5637,3.5635,3.5513,3.551,3.5507,3.5505,3.5395,3.5393,3.5391,3.5435,0,0,3.5385,3.5384,0,0,0,0,0,0,0,0,3.5778,3.577,3.5682,3.5674,3.5666,3.5586,3.5629,3.5568,3.5514,3.5569,3.5507,3.5503,3.546,3.5452,3.5438,3.5429,3.5425,3.5385,3.5384,3.5383,3.5383,0,0,0,0,0,0,0,3.5783,3.5774,3.5703,3.5681,3.5671,3.5639,3.5626,3.5617,3.5531,3.5564,3.5555,3.5544,3.5455,3.544,3.5435,3.5423,3.5385,3.5383,3.5382,3.5381,3.5443,3.5446,0,0,0,0,0,0,3.5799,3.5779,3.5707,3.57,3.5716,3.564,3.5625,3.5614,3.5531,3.5516,3.5547,3.5539,3.5445,3.5437,3.543,3.5475,3.5383,3.5381,3.538,3.544,3.5444,3.5447,0,0,0,0,0,0,3.5802,3.5794,3.5711,3.5737,3.5724,3.5641,3.5629,3.5614,3.5599,3.5518,3.5502,3.5548,3.5443,3.5433,3.5434,3.5469,3.538,3.5379,3.5437,3.5442,3.5445,3.5566,0,0,0,0,0,0,3.5805,3.5796,3.5812,3.5738,3.5723,3.5718,3.5632,3.5613,3.5596,3.5585,3.5515,3.55,3.544,3.5438,3.5433,3.5465,3.5377,3.5434,3.5439,3.5444,3.5558,3.5574,3.5587,0,0,0,0,0,3.5809,3.585,3.5814,3.5806,3.5742,3.5721,3.5712,3.5642,3.56,3.5615,3.5563,3.5503,3.5467,3.5439,3.5432,3.5465,3.5431,3.5438,3.5444,3.5552,3.5571,3.5586,0,0,0,0,0,0,3.5929,3.5839,3.5798,3.5816,3.5777,3.57,3.5717,3.5664,3.5635,3.5626,3.554,3.5525,3.5536,3.55,3.5471,3.5502,3.544,3.5445,3.5525,3.5542,3.5556,3.5564,3.5376,0,0,0,0,0,3.5958,3.5949,3.587,3.5894,3.5877,3.5801,3.5789,3.5738,3.5694,3.5677,3.5624,3.5583,3.5562,3.555,3.5526,3.5553,3.5535,3.5571,3.5586,3.5598,3.5603,3.5613,3.5628,3.5468,3.5467,3.5467,0,0,3.6017,3.5967,3.5966,3.5917,3.5881,3.5873,3.5788,3.5782,3.5775,3.5675,3.5674,3.5634,3.5582,3.5596,3.56,3.5566,3.5643,3.5606,3.5616,3.5614,3.5621,3.5636,3.565,3.5472,3.5471,3.547,0,0,3.6121,3.6082,3.6097,3.6063,3.601,3.5959,3.5963,3.5893,3.5864,3.5861,3.5786,3.5775,3.5741,3.5707,3.5685,3.5776,3.5719,3.577,3.5844,3.5855,3.5868,3.5879,3.591,3.5922,3.5776,3.5776,3.5777,0,3.62,3.6186,3.6112,3.6111,3.6091,3.6002,3.6016,3.5986,3.5928,3.5916,3.588,3.5835,3.5794,3.5798,3.582,3.5806,3.5806,3.5778,3.5872,3.5882,3.5891,3.592,3.5932,3.5783,3.5782,3.5782,3.5781,0,3.6286,3.6277,3.6296,3.6243,3.6225,3.6232,3.6158,3.6149,3.61,3.6053,3.6051,3.5998,3.5962,3.5959,3.5911,3.5956,3.5937,3.5888,3.5824,3.5914,3.594,3.5951,3.5792,3.579,3.5788,3.5786,0,0,3.6462,3.6368,3.6376,3.635,3.6285,3.6276,3.6278,3.6244,3.6237,3.62,3.6199,3.6173,3.6127,3.6102,3.6049,3.6059,3.6133,3.6008,3.6006,3.6033,3.6179,3.6216,3.623,3.6096,3.6097,3.6099,3.6183,0,3.6553,3.6553,3.6486,3.6504,3.6494,3.6409,3.6411,3.6371,3.6327,3.6311,3.6262,3.6244,3.6185,3.617,3.6176,3.6123,3.6161,3.6116,3.6093,3.6093,3.6108,3.6243,3.6282,3.6364,3.6192,3.6194,3.6195,0,3.6658,3.6628,3.6646,3.6579,3.6573,3.6576,3.6539,3.6525,3.6477,3.6444,3.6417,3.6358,3.6354,3.6295,3.6288,3.6259,3.6245,3.6218,3.622,3.6214,3.6149,3.6241,3.6389,3.6401,3.621,3.6209,3.6208,0,3.6784,3.6747,3.6753,3.6734,3.6657,3.6661,3.6629,3.6578,3.6561,3.6529,3.6517,3.6484,3.6466,3.6441,3.6374,3.6337,3.6375,3.6309,3.6346,3.6348,3.6357,3.6357,3.6504,3.635,3.635,3.635,3.635,0,3.6892,3.6906,3.6808,3.6812,3.6824,3.6747,3.6761,3.6721,3.6677,3.667,3.6594,3.6589,3.6501,3.6485,3.6433,3.6435,3.6427,3.6399,3.6385,3.6406,3.6409,3.6395,3.6387,3.6353,3.6352,3.6352,3.6351,0,3.7033,3.6969,3.6969,3.6897,3.6878,3.6891,3.6828,3.6827,3.6779,3.6771,3.6765,3.6688,3.6666,3.6597,3.6557,3.6522,3.6539,3.6512,3.6556,3.6547,3.6587,3.6584,3.6729,3.6744,3.6582,3.6584,3.6585,0,3.7106,3.7115,3.7043,3.7034,3.7005,3.6991,3.6974,3.6898,3.6883,3.6829,3.6835,3.6808,3.6781,3.675,3.669,3.6659,3.663,3.6683,3.6625,3.6645,3.663,3.663,3.663,3.6696,3.6698,3.67,3.6701,0,3.7242,3.721,3.7188,3.7156,3.7138,3.7109,3.7075,3.7071,3.6987,3.6974,3.6951,3.6931,3.689,3.6863,3.6823,3.6788,3.673,3.672,3.6727,3.6748,3.6772,3.6759,3.659,3.6717,3.6715,3.6714,3.6713,3.6713,3.735,3.7354,3.7304,3.7283,3.725,3.722,3.7216,3.7168,3.7147,3.711,3.7066,3.7048,3.6999,3.6939,3.6908,3.6892,3.6861,3.6871,3.6873,3.6877,3.6886,3.6776,3.6885,3.6884,3.6884,3.6883,3.6883,0,3.7481,3.7445,3.7427,3.7382,3.7366,3.7314,3.7274,3.7263,3.7249,3.7208,3.7184,3.7158,3.7131,3.7069,3.7036,3.7035,3.7008,3.7029,3.7028,3.7021,3.6916,3.6914,3.7052,3.7052,3.7052,3.7052,3.7052,3.7052,3.7547,3.7551,3.7513,3.7498,3.7461,3.7444,3.7426,3.7398,3.7365,3.7339,3.7317,3.7277,3.7228,3.7191,3.7164,3.7146,3.7137,3.7167,3.7141,3.7044,3.7028,3.7013,3.701,3.7166,3.7166,3.7246,3.7247,3.7248]}]]